Location: Unspecified
(0.0000°N, 0.0000°E)
Time: 10:56:25
(UTC+00:00)

Courier 1B - Visible Passes

Search period start: 09 February 2026 00:00
Search period end: 19 February 2026 00:00
Orbit: 962 x 1208 km, 28.3° (Epoch: 9 February)

Date Brightness Start Highest point End Pass type
(mag) Time Alt. Az. Time Alt. Az. Time Alt. Az.
9 Feb 9.8 04:01:28 12° NNE 04:02:17 12° NNE 04:04:59 10° NE visible
9 Feb 7.9 19:16:15 10° WSW 19:23:40 76° NNW 19:28:48 23° NE visible
9 Feb 9.7 21:12:20 10° WNW 21:15:42 21° NW 21:15:42 21° NW visible
10 Feb 9.1 04:57:58 13° NNW 05:03:15 28° NNE 05:08:59 10° E visible
10 Feb 7.9 18:22:20 10° WSW 18:29:36 81° SSE 18:37:18 10° ENE visible
10 Feb 8.9 20:17:31 10° W 20:24:06 33° NNW 20:25:24 31° N visible
11 Feb 9.3 04:07:37 20° N 04:09:05 21° NNE 04:14:14 10° ENE visible
11 Feb 8.6 19:23:00 10° W 19:29:56 43° NNW 19:35:06 19° NNE visible
11 Feb 10.2 21:20:58 10° NW 21:22:00 12° NW 21:22:00 12° NW visible
12 Feb 9.9 03:17:17 14° NE 03:17:17 14° NE 03:19:06 10° ENE visible
12 Feb 8.3 05:04:11 17° NW 05:09:41 50° NNE 05:16:18 10° ESE visible
12 Feb 8.3 18:28:46 10° WSW 18:35:49 59° NNW 18:43:19 10° NE visible
12 Feb 9.5 20:25:31 10° WNW 20:30:40 19° NNW 20:31:43 19° NNW visible
13 Feb 8.7 04:13:53 33° N 04:15:37 37° NNE 04:22:01 10° E visible
13 Feb 9.3 19:30:30 10° W 19:36:22 25° NNW 19:41:24 13° NNE visible
14 Feb 9.4 03:23:35 24° NE 03:23:35 24° NE 03:27:28 10° E visible
14 Feb 7.7 05:10:29 20° WNW 05:15:57 88° NNE 05:22:54 10° ESE visible
14 Feb 9.0 18:35:51 10° W 18:42:11 33° NNW 18:48:50 10° NE visible
14 Feb 10.0 20:35:05 10° NW 20:37:31 12° NNW 20:37:57 12° NNW visible
15 Feb 7.9 04:20:12 51° NNW 04:21:56 65° NNE 04:28:59 10° ESE visible
15 Feb 9.8 19:39:07 10° NW 19:43:05 15° NNW 19:47:08 10° NNE visible
16 Feb 8.8 03:29:55 39° ENE 03:29:55 39° ENE 03:34:50 10° ESE visible
16 Feb 8.1 05:16:50 18° W 05:22:10 52° SSW 05:28:57 10° SE visible
16 Feb 9.6 18:43:49 10° WNW 18:48:44 19° NNW 18:53:51 10° NNE visible
17 Feb 10.2 02:39:37 13° E 02:39:37 13° E 02:40:25 10° E visible
17 Feb 7.7 04:26:31 55° W 04:28:09 73° SSW 04:35:19 10° SE visible
18 Feb 8.4 03:36:12 52° ESE 03:36:12 52° ESE 03:41:29 10° ESE visible
18 Feb 8.8 05:23:06 14° W 05:28:28 30° SSW 05:34:32 10° SSE visible
18 Feb 9.9 18:53:29 10° NW 18:55:35 11° NNW 18:57:43 10° N visible
